This is the latest recevied weather packets stored in our database for station/object K3RUP-1. If no packets are shown the sender has not sent any weather packets the latest 10 day(s).
| Time | Temp. | Humidity | Pressure | Rain* | Wind** | Luminosity | Snow |
|---|---|---|---|---|---|---|---|
| 1788480758 | 26.67° C | 95% | 1013.1 hPa | 0 mm | - | 0 W/m² | - |
| 1788480454 | 27.22° C | 95% | 1013.1 hPa | 0 mm | - | 0 W/m² | - |
| 1788480148 | 27.22° C | 94% | 1013 hPa | 0 mm | - | 0 W/m² | - |
| 1788479847 | 27.22° C | 94% | 1013 hPa | 0 mm | - | 0 W/m² | - |
| 1788479544 | 27.22° C | 94% | 1012.7 hPa | 0 mm | - | 0 W/m² | - |
| 1788479238 | 27.22° C | 93% | 1012.8 hPa | 0 mm | - | 0 W/m² | - |
| 1788478935 | 27.22° C | 93% | 1012.6 hPa | 0 mm | - | 0 W/m² | - |
| 1788478630 | 27.22° C | 93% | 1012.5 hPa | 0 mm | - | 0 W/m² | - |
| 1788478326 | 27.78° C | 92% | 1012.5 hPa | 0 mm | - | 0 W/m² | - |
| 1788478025 | 27.78° C | 92% | 1012.4 hPa | 0 mm | - | 0 W/m² | - |
| 1788477721 | 27.78° C | 92% | 1012.6 hPa | 0 mm | - | 0 W/m² | - |
| 1788477420 | 27.78° C | 91% | 1012.6 hPa | 0 mm | - | 4 W/m² | - |
| 1788477115 | 28.33° C | 91% | 1012.6 hPa | 0 mm | - | 7 W/m² | - |
| 1788476811 | 28.33° C | 90% | 1012.5 hPa | 0 mm | - | 7 W/m² | - |
| 1788476510 | 28.33° C | 90% | 1012.4 hPa | 0 mm | - | 7 W/m² | - |
| 1788476207 | 28.33° C | 89% | 1012.3 hPa | 0 mm | - | 9 W/m² | - |
| 1788475903 | 28.33° C | 89% | 1012.2 hPa | 0 mm | - | 12 W/m² | - |
| 1788475598 | 28.89° C | 87% | 1012.5 hPa | 0 mm | - | 16 W/m² | - |
| 1788475295 | 28.89° C | 86% | 1012.4 hPa | 0 mm | - | 20 W/m² | - |
| 1788474990 | 28.89° C | 86% | 1012.4 hPa | 0 mm | - | 23 W/m² | - |
| 1788474688 | 29.44° C | 85% | 1012.3 hPa | 0 mm | - | 26 W/m² | - |
| 1788474384 | 29.44° C | 84% | 1012.3 hPa | 0 mm | - | 34 W/m² | - |
| 1788474082 | 29.44° C | 83% | 1012.3 hPa | 0 mm | - | 36 W/m² | - |
| 1788473778 | 29.44° C | 83% | 1012.4 hPa | 0 mm | - | 39 W/m² | - |
| 1788473476 | 29.44° C | 83% | 1012.3 hPa | 0 mm | - | 48 W/m² | - |
* Rain latest hour (hover to see other rain measurements)
** Current wind speed in m/s (hover to see current wind gust speed)